Location: Binningen
(47.7924°N, 8.7261°E)
Time: 06:43:56
(UTC+00:00)

Cosmos 1271 Rocket - Pass Details

Date: 17 May 2021
Orbit: 497 x 545 km, 81.2° (Epoch: 20 June)

Event Time Altitude Azimuth Distance (km) Brightness Sun altitude
Exits shadow 20:29:59 - 199° (SSW) 2,678 6.0 -12.5°
Reaches altitude 10° 20:32:06 10° 203° (SSW) 1,812 5.2 -12.7°
Maximum altitude 20:36:03 59° 284° (WNW) 637 3.4 -13.2°
Drops below altitude 10° 20:40:01 10° 4° (N) 1,821 6.2 -13.6°
Sets 20:42:13 0° 9° (N) 2,713 7.0 -13.8°
